Showing default

HUBBLE 6, 64562

Orbit data source: Space-Track

HUBBLE 6, 64562 is an American payload satellite in SSO that was launched on Mon, 23 Jun 2025 UTC via an FALCON 9 launch vehicle from the Air Force Western Test Range (AFWTR). Payload-class satellites include a variety of spacecraft equipped with specific instruments for various scientific and technological missions. These include communications satellites like Starlink; space stations such as the ISS; scientific satellites like the Hubble; Earth observation satellites from companies like Planet Labs, Umbra, and HawkEye 360; GPS; miniature CubeSats for education and research; and military/defense satellites.

Loading next visibility...
Identifier
64562, 2025-135AL
Orbit
SSO
Country
Flag of USUS
Related business
Manufacturer
Endurosat
Mission
Operational Commercial Communications
Bus & Motor
CUBESAT 16U, Unknown motor
Mass
22 kg wet, 22 kg dry
Launch date (UTC)
2025-06-23 (8 months ago)
Launch vehicle
FALCON 9
Launch site
Air Force Western Test Range (AFWTR)
Object type
Payload
Rocket body
Debris
Shape & HBR
Box + 4 Pan, 1.0 m
Radar Cross Section
0.326 m², Medium (>0.1 m² and < 1m²)

Expand to show TLE details & history
Last TLE update: 12 hours ago

TLE from 12 hours ago
0 HUBBLE 6
1 64562U 25135AL  26062.31123173  .00002951  00000-0  28970-3 0  9992
2 64562  97.7623 177.7807 0001317 119.2813 240.8538 14.92940783 38078
Epoch: 2026-03-03T07:28Z
TLE epoch observation values (Epoch: 2026-03-03T07:28:10.421Z)
Latitude
-0.00004°
Longitude
-95.35483°
Altitude
592.262 km
Speed
7.564 km/s
True Right ascension
11h 51m 07s
True Declination
0° 00' 00"
Sunlit
Object was in full shadow at epoch
Visualization orbit readout
Latitude
Unknown
Longitude
Unknown
Altitude
Unknown
Speed
Unknown
Apparent Right ascension
Unknown
Apparent Declination
Unknown
Sunlit
N/A
Visualization observer readout
Local Sidereal Time
23:39:03
Azimuth
Unknown
Elevation
Unknown
Doppler factor
Unknown
Orbital elements
Apogee altitude
586.706 km
Perigee altitude
584.872 km
Semi-major axis
6,963.926 km
Eccentricity
0.00013
Inclination
97.7623°
RAAN
177.7807°
Arg. of periapsis
119.2813°
True anomaly
240.84062°
Mean anomaly
240.8538°
Eccentric anomaly
240.84721°
Mean motion
3.73475 °/min
Orbital period
96.39 mins
BSTAR
0.0002897
Loading maneuver chart data...
Computing Atmospheric mass density...
Loading historical data...
Loading historical data...
Loading historical data...
Loading historical data...
Loading historical data...
Loading historical data...
Loading historical data...

Documentation

Showing up to 5 results
|